User: anonymous   Login
Location: Unspecified
(0.0000°N, 0.0000°E)
Time: 22:41:38
(UTC+00:00)
Language:

Syncom 2 - Orbit

View from above orbital plane
View from above orbital plane
View from above satellite
View from above satellite

Ground track
Ground track

The orbit data is extracted from the following two-line orbital elements,

1 00634U 63031A   18174.01844590 -.00000176  00000-0  00000+0 0  9992
2 00634  35.1104 340.8080 0005676 141.0679 237.6362  1.00293212201118
Epoch (UTC): 23 June 2018 00:26:33
Eccentricity: 0.0005676
inclination: 35.1104°
perigee height: 35756 km
apogee height: 35804 km
right ascension of ascending node: 340.8080°
argument of perigee: 141.0679°
revolutions per day: 1.00293212
mean anomaly at epoch: 237.6362°
orbit number at epoch: 20111

The dashed part of the orbit path shows where the satellite is in the earth's shadow,  

DLR